Regional Weather Roundup
Issued by NWS

Home | Current Version | Previous Version | Text Only | Print | Product List | Glossary Off
Versions: 1 2 3 4 5 6 7 8 9 10 11 12 13 14 15 16 17 18 19 20 21 22 23 24 25 26 27 28 29 30 31 32 33 34 35 36 37 38 39 40 41 42 43 44 45 46 47 48 49 50

000
ASUS44 KMEG 210000
RWRTN
TENNESSEE HOURLY STATE WEATHER ROUNDUP
NATIONAL WEATHER SERVICE MEMPHIS TN
600 PM CST SAT DEC 20 2014

TNZ002-004-019-021-049-052-054-088>092-210100-
WEST TENNESSEE

CITY           SKY/WX    TMP DP  RH WIND       PRES   REMARKS
MEMPHIS INTL   MOCLDY    44  34  67 N3        30.23R
NWS MEMPHIS      N/A     43 N/A N/A MISG        N/A
JACKSON        CLEAR     40  30  67 CALM      30.24R
DYERSBURG      CLEAR     41  23  48 CALM      30.27R
UNION CITY     CLEAR     34  28  80 CALM      30.24S
PARIS          CLEAR     32  25  74 CALM      30.25S
LEXINGTON      CLEAR     37  28  70 NE6       30.23S WCI  33
SAVANNAH       CLEAR     39  30  70 N5        30.23S
$$

TNZ008-025-027-028-033-062-065-066-210100-
NORTH MIDDLE TENNESSEE

CITY           SKY/WX    TMP DP  RH WIND       PRES   REMARKS
NASHVILLE      MOCLDY    39  29  67 N7        30.26R WCI  34
CLARKSVILLE    CLEAR     36  27  69 CALM      30.27R
COOKEVILLE     CLEAR     30  27  86 CALM      30.22R
CROSSVILLE     PTCLDY    39  26  59 N3        30.20R
$$

TNZ061-075-076-078-094-096-097-210100-
SOUTH MIDDLE TENNESSEE

CITY           SKY/WX    TMP DP  RH WIND       PRES   REMARKS
FAYETTEVILLE   CLEAR     39  27  60 MISG      30.20S
TULLAHOMA      CLEAR     37  27  65 N3        30.22R
WINCHESTER     CLEAR     41  28  60 N3        30.21S
SHELBYVILLE    CLEAR     37  30  75 N5        30.24R WCI  34
$$

TNZ017-018-042-046-047-210100-
NORTHEAST TENNESSEE

CITY           SKY/WX    TMP DP  RH WIND       PRES   REMARKS
TRI CITIES     CLOUDY    42  37  82 W3        30.21R
ELIZABETHTON   CLOUDY    39  37  93 CALM      30.20R
$$

TNZ012-013-036-069-073-074-210100-
CENTRAL EAST TENNESSEE

CITY           SKY/WX    TMP DP  RH WIND       PRES   REMARKS
KNOXVILLE      CLOUDY    42  35  76 E5        30.22S
OAK RIDGE      CLOUDY    43  33  68 CALM      30.24R
GATLINBURG     CLOUDY    39  36  87 S3        30.23R
$$

TNZ083-085-099-210100-
SOUTHEAST TENNESSEE

CITY           SKY/WX    TMP DP  RH WIND       PRES   REMARKS
CHATTANOOGA    PTCLDY    39  33  79 N3        30.22R
$$

SKY/WX REPORTED AS FAIR MEANS FEW OR NO CLOUDS BELOW
12 THOUSAND FEET.




USA.gov is the U.S. government's official web portal to all federal, state and local government web resources and services.